ECMWFNIL_850_temp_168.txt.gz
Temp
17 17 17 17 17 17 17 17 17 17 17 17 17 16 16 16 16 17 17 17 17 18 19 19 19 19 19 18 18 17 17 16 15 15 15 15 15 15 15 15 15 15
16 16 16 16 16 17 17 17 17 17 17 17 17 17 16 16 16 16 16 16 16 17 17 17 17 18 18 18 17 17 17 16 15 15 15 15 15 14 14 14 14 14
16 16 16 16 16 16 17 16 16 16 16 16 16 16 16 16 16 15 15 15 16 16 16 16 16 16 17 17 16 16 16 16 15 15 14 14 14 14 14 13 13 13
17 17 16 16 16 16 16 16 16 16 16 16 16 16 16 16 16 15 15 15 15 15 15 15 15 16 16 16 15 15 15 15 15 15 14 14 13 13 13 13 13 12
17 17 17 16 16 16 16 16 16 16 16 16 16 16 16 15 15 15 15 15 15 15 15 15 15 15 15 15 15 15 15 15 14 14 14 14 13 13 13 13 12 12
17 17 16 16 16 16 16 16 16 16 16 16 16 16 15 15 15 15 15 14 14 14 14 14 14 14 14 14 14 14 14 14 14 14 14 14 13 13 13 12 12 12
17 17 16 16 16 16 16 17 17 17 17 16 16 16 15 15 15 15 14 14 14 14 14 14 14 14 14 14 14 14 14 14 14 14 13 14 14 13 13 13 13 12
16 17 17 17 16 16 16 17 17 17 17 16 16 16 16 16 15 15 14 14 14 14 14 14 14 14 14 14 14 14 13 13 14 14 14 14 14 14 14 14 13 13
16 16 17 17 17 17 17 17 17 16 16 16 16 16 16 16 15 14 13 13 13 13 13 13 13 14 13 13 13 13 13 13 14 14 14 15 15 15 15 14 13 13
17 16 16 17 17 17 17 17 17 17 16 16 16 16 16 16 16 15 13 13 12 12 13 13 13 13 13 13 13 13 13 14 14 14 14 15 15 15 15 15 14 13
17 16 16 16 17 17 17 17 17 17 17 16 16 16 16 17 16 16 15 14 14 13 13 13 13 13 13 13 13 13 14 14 14 15 15 15 15 15 15 14 14 14
16 16 16 16 16 16 17 17 17 17 17 17 17 16 17 17 17 16 16 15 15 15 14 13 13 13 13 13 13 13 14 14 15 15 15 15 15 15 15 14 14 13
16 16 15 15 15 16 16 16 17 16 17 17 17 17 17 17 17 17 16 16 15 15 15 14 14 14 14 14 13 13 14 14 14 15 15 15 15 15 15 14 14 13
17 16 15 14 14 15 15 16 16 16 16 16 17 17 17 16 16 16 16 16 16 15 16 15 15 15 15 15 15 14 14 14 14 14 14 14 14 14 14 14 13 13
16 15 15 14 14 14 15 15 15 16 16 16 16 16 16 16 16 16 16 16 16 16 16 16 15 16 16 16 16 15 15 15 15 14 14 14 14 14 13 13 13 13
15 14 14 13 13 14 14 14 15 15 16 16 16 16 16 16 16 16 16 16 16 16 16 16 16 16 16 16 16 15 15 14 14 14 14 14 13 13 13 13 13 13
13 13 13 13 13 13 14 14 14 14 15 16 16 16 16 16 15 16 16 16 16 16 16 16 16 16 16 16 16 15 15 14 14 13 13 13 13 13 13 13 13 13
13 12 12 12 12 13 13 13 13 14 14 14 15 15 15 15 15 15 15 15 15 15 15 16 16 16 16 16 16 15 15 14 14 13 13 13 12 12 13 13 13 13
12 11 11 11 12 12 12 12 12 13 13 13 14 14 14 15 15 15 15 15 15 15 15 15 16 16 16 16 15 15 15 14 14 13 13 13 13 12 13 13 13 12
11 11 11 11 11 11 11 11 11 12 12 12 13 13 13 14 14 15 15 15 14 14 14 15 15 16 16 15 15 15 14 14 13 13 13 13 13 13 13 13 13 12
10 10 10 10 10 10 10 11 11 11 12 12 12 12 13 13 13 14 14 14 14 14 13 14 15 15 15 15 15 15 14 14 13 13 13 13 13 13 13 13 13 12
9 9 9 10 10 10 10 10 11 11 11 11 12 12 12 13 13 13 14 14 14 14 13 14 15 15 15 15 14 14 14 14 13 13 13 13 14 14 13 13 13 12
8 8 9 9 10 10 10 10 10 10 11 11 11 12 12 12 12 13 13 13 13 13 13 14 14 14 14 14 14 13 13 14 14 14 13 14 14 14 13 13 12 12
8 8 8 9 9 10 10 10 10 10 10 10 10 11 11 12 12 12 13 13 14 13 13 14 14 13 13 13 13 13 13 13 14 14 14 14 14 13 13 12 12 11
9 8 8 8 9 9 9 9 9 10 10 10 10 10 11 11 11 12 12 13 13 13 13 13 13 13 12 12 12 12 12 12 12 13 13 13 13 13 12 12 11 10
9 9 8 8 9 9 9 9 9 9 9 9 10 10 10 10 11 11 11 12 12 13 13 13 13 13 12 12 11 11 11 10 10 11 12 12 12 12 11 11 10 9

ECMWFNIL_850_temp_174.txt.gz
Temp
16 16 16 16 16 16 16 16 16 16 16 15 15 15 15 15 15 15 15 15 15 14 14 14 14 14 14 14 14 14 14 14 14 14 14 13 14 14 13 13 13 13
15 15 15 15 15 15 15 15 15 15 15 15 15 15 15 15 15 14 14 14 14 14 14 14 14 14 14 14 14 14 13 13 13 13 13 13 13 13 13 13 13 13
16 16 15 15 15 16 16 15 15 15 15 15 15 15 15 14 14 14 14 14 14 14 14 14 14 14 14 14 14 13 13 13 13 13 13 13 13 13 13 13 13 13
16 16 16 15 15 15 15 15 15 15 15 15 15 15 15 15 15 14 14 14 14 14 14 14 14 13 13 13 13 13 13 13 13 13 13 13 13 13 13 13 12 12
16 16 16 15 15 15 15 15 15 16 16 16 16 16 15 15 15 15 15 15 14 14 14 14 14 14 13 13 13 13 13 13 13 13 13 13 13 13 13 12 12 12
16 15 15 15 15 15 15 15 16 16 16 16 16 16 16 16 16 16 16 15 15 15 14 14 14 14 14 13 13 13 13 13 13 13 13 13 13 13 13 12 12 13
15 15 15 15 15 15 15 15 15 16 16 15 16 16 16 16 16 16 16 16 16 15 15 15 15 14 14 14 13 13 13 13 13 13 12 13 13 13 13 12 12 12
15 15 15 15 15 15 15 15 15 15 15 15 15 15 15 15 16 16 16 16 16 16 16 15 15 15 14 14 13 13 13 13 13 12 12 12 12 12 12 12 12 12
15 15 15 15 15 14 14 15 14 14 14 14 14 15 15 15 15 15 15 15 15 15 16 15 15 15 15 14 14 13 13 13 13 12 12 12 12 12 12 12 12 12
15 15 15 14 14 14 14 14 14 14 14 14 14 14 14 14 14 14 14 14 15 15 15 15 15 15 15 14 14 14 14 13 13 13 12 12 12 12 12 11 11 12
14 14 14 14 13 13 13 13 13 14 14 14 13 13 13 13 13 14 14 14 14 14 14 14 15 15 14 14 14 14 14 13 13 13 12 12 12 12 12 11 11 11
13 13 13 13 13 13 13 13 13 13 13 13 13 12 12 12 13 13 14 14 14 14 14 14 14 14 14 14 14 14 14 13 13 13 13 12 12 11 11 11 11 11
12 12 12 12 12 12 13 13 12 12 12 12 12 11 11 12 12 13 13 13 13 14 14 13 13 13 13 13 13 13 13 13 13 13 13 12 12 11 11 11 11 11
11 11 11 11 11 12 12 12 12 12 12 12 11 11 11 11 11 12 12 13 13 13 13 13 13 13 13 13 13 13 13 13 13 13 12 12 12 12 11 11 11 11
11 11 11 11 11 11 11 11 11 11 11 11 11 11 11 11 11 11 11 12 12 12 12 12 12 13 13 12 12 12 12 12 12 12 12 12 12 12 11 11 11 10
10 10 10 10 10 11 11 11 11 11 11 11 11 11 11 10 10 11 11 11 11 12 12 12 12 12 13 12 12 12 12 12 12 12 12 12 12 12 12 11 11 11
10 10 10 10 10 10 10 10 10 10 11 10 10 10 10 10 10 10 10 11 11 11 11 12 12 12 12 12 12 12 11 11 11 11 11 11 11 11 12 12 12 11
9 10 10 10 10 10 10 10 10 10 10 10 10 10 10 10 10 10 10 10 10 11 11 11 12 12 12 11 11 11 11 11 11 11 11 11 11 11 11 12 11 11
9 9 9 9 10 10 10 10 10 10 10 10 10 10 9 10 10 10 10 10 10 10 11 11 11 11 11 11 11 11 11 10 10 10 10 11 11 11 11 12 11 11
9 9 9 9 9 9 9 9 9 9 9 9 9 9 9 10 10 10 10 10 10 10 11 11 11 11 11 11 11 11 10 10 10 10 10 10 11 11 11 11 11 11
8 8 9 9 9 9 9 9 9 9 9 9 9 9 9 9 10 10 10 10 10 10 10 11 11 11 11 11 11 11 10 10 10 10 10 10 10 11 11 11 11 11
8 8 8 8 8 9 9 9 8 8 8 8 8 9 9 9 9 10 10 10 10 10 10 11 11 11 11 11 11 11 10 10 10 10 10 10 10 11 10 10 11 11
8 8 8 8 8 8 8 8 8 8 7 7 8 8 9 9 9 9 10 10 10 10 10 10 11 11 11 10 10 10 10 10 10 9 10 10 10 10 10 10 10 10
7 7 8 8 8 7 7 7 7 6 6 6 7 7 8 8 8 8 9 9 9 9 9 10 10 11 10 10 10 10 9 9 9 9 9 10 10 10 10 10 10 10
6 6 6 6 6 6 5 5 5 5 5 5 6 6 7 7 7 7 8 8 8 8 9 9 9 10 10 9 9 9 8 8 8 8 8 9 9 9 10 10 10 10
4 4 4 4 4 4 4 4 4 4 4 4 4 5 5 6 6 6 7 8 8 8 8 8 8 9 9 8 8 8 7 6 6 7 7 8 8 8 9 10 10 10

ECMWFNIL_850_temp_180.txt.gz
Temp
14 14 15 15 15 15 15 15 15 15 16 16 16 16 16 16 16 16 16 15 15 15 15 15 15 14 14 14 14 14 14 13 13 13 13 13 12 12 12 12 12 12
14 14 14 14 14 15 15 15 15 15 15 15 16 15 15 15 15 15 15 15 14 14 14 14 14 14 14 14 14 13 13 13 13 13 13 13 12 12 12 12 12 12
13 13 13 13 14 14 14 14 14 15 15 15 15 15 14 14 14 14 14 14 14 14 14 14 14 14 13 13 13 13 13 13 13 13 12 12 12 12 12 12 12 11
14 13 13 13 13 13 14 14 14 14 14 14 14 14 14 14 14 14 14 14 14 14 13 13 13 13 13 13 13 13 13 13 13 13 12 12 12 12 12 11 11 11
14 14 14 14 13 13 14 14 14 14 14 14 14 14 14 14 14 14 14 14 14 14 14 14 14 13 13 13 13 13 13 13 13 12 12 12 12 12 12 11 11 11
13 13 14 14 14 14 14 14 14 14 14 14 14 14 14 14 14 14 14 14 14 14 14 14 14 14 13 13 13 13 13 13 13 12 12 12 12 12 12 11 11 11
13 13 13 13 14 14 14 14 14 14 14 14 14 14 14 14 14 14 14 14 14 14 14 14 14 14 13 13 13 13 13 13 13 13 13 13 12 12 12 11 11 11
12 13 13 13 13 14 14 14 14 14 14 13 13 13 13 13 13 13 13 13 13 13 13 13 13 13 13 13 13 13 13 13 13 13 13 13 13 13 13 12 11 11
12 12 12 12 13 13 13 13 13 13 13 13 13 13 13 13 13 12 12 12 12 12 12 12 12 12 12 12 12 12 12 13 12 12 12 13 13 13 13 12 12 12
11 11 11 12 12 12 12 13 13 13 13 13 13 13 13 12 12 12 12 12 12 12 12 12 12 12 12 12 12 12 12 12 12 12 12 12 12 12 12 12 12 12
10 10 10 10 11 11 11 11 12 12 12 12 12 12 12 12 12 12 12 12 12 12 12 12 12 12 12 12 11 11 11 11 11 11 11 11 11 11 12 11 12 12
8 9 9 9 10 10 10 10 11 11 11 11 12 11 11 11 11 11 11 11 11 12 12 12 12 12 12 11 11 11 11 11 11 11 11 11 11 11 11 11 11 11
7 8 8 8 9 9 9 10 10 10 10 10 10 11 11 11 11 11 11 11 11 11 11 11 11 11 11 11 11 11 11 11 11 11 11 11 11 11 11 11 11 11
6 7 7 7 8 8 8 9 9 9 9 9 10 10 10 10 10 11 11 10 10 10 10 10 10 10 10 10 10 10 10 11 11 11 11 11 11 11 11 11 11 11
5 6 6 6 7 7 7 8 8 8 9 9 9 9 9 10 10 10 10 10 10 10 10 10 10 10 10 10 10 10 10 10 10 10 10 10 11 11 11 11 11 11
4 4 5 5 6 6 7 7 7 8 8 8 8 9 9 9 9 9 9 9 10 10 10 10 10 10 10 10 10 10 10 10 10 10 10 10 10 10 11 11 11 11
3 4 4 4 4 5 5 6 7 7 8 8 8 8 8 8 9 9 9 9 9 9 9 10 10 10 9 9 9 9 10 10 10 10 10 10 10 10 10 10 10 10
3 3 3 3 4 4 4 5 6 6 7 7 7 8 8 8 8 8 9 9 9 9 9 9 9 9 9 9 9 9 9 9 9 10 10 10 10 10 10 10 10 10
2 3 3 3 3 3 4 4 4 5 5 6 7 7 7 7 8 8 8 8 8 8 9 9 9 8 8 8 8 8 8 9 9 9 9 9 10 10 10 10 10 10
2 2 2 3 3 3 3 3 3 4 4 5 5 6 6 6 6 7 7 7 7 8 8 8 8 8 8 7 8 8 8 8 8 9 9 9 9 9 9 9 9 9
1 1 1 2 2 2 2 3 3 3 3 4 4 4 5 5 5 5 5 5 6 6 7 7 7 7 7 7 7 7 7 7 8 8 8 8 8 9 8 9 9 9
0 0 0 1 1 1 1 2 2 2 3 3 3 4 4 4 4 4 4 4 4 5 5 5 6 6 6 6 6 6 6 7 7 7 8 8 8 8 8 8 8 8
-1 -1 -1 -1 -1 -0 0 1 1 1 2 2 2 3 3 3 3 3 3 3 3 3 4 4 5 5 5 5 5 5 6 6 6 6 7 7 7 7 7 8 8 8
-3 -3 -3 -2 -2 -2 -1 -0 -0 0 0 1 1 2 2 2 2 2 3 3 2 2 2 3 3 4 4 4 4 5 5 5 5 6 6 6 7 7 7 7 7 7
-5 -4 -4 -4 -4 -4 -3 -3 -2 -2 -2 -2 -2 -1 0 1 1 1 2 2 2 1 1 1 1 2 2 2 3 3 3 4 4 4 5 5 6 6 6 6 6 6
-6 -5 -5 -5 -5 -6 -6 -5 -5 -5 -5 -5 -5 -4 -3 -2 -2 -1 -1 0 0 -0 -1 -1 -0 0 1 1 1 1 1 2 2 2 3 3 4 5 5 6 6 5

ECMWFNIL_850_temp_186.txt.gz
Temp
8 8 9 9 9 10 10 10 11 11 11 12 12 12 12 12 12 12 12 12 12 13 13 13 13 13 13 13 13 13 13 12 12 13 13 13 13 12 12 12 12 11
8 8 8 8 8 9 9 9 9 10 10 11 11 11 12 12 12 12 12 12 12 12 12 13 13 13 13 13 13 13 13 13 13 13 13 13 12 12 11 11 11 11
7 7 7 7 8 8 8 8 8 9 9 10 10 11 11 12 12 12 12 12 12 12 12 12 12 13 13 13 13 13 13 13 13 13 13 12 12 11 11 11 11 10
6 6 6 6 7 7 7 8 8 8 8 9 9 10 10 11 11 11 11 11 12 12 12 12 12 12 12 12 13 13 13 13 13 13 13 12 12 12 12 12 12 11
5 5 5 6 6 6 7 7 7 7 8 8 8 8 9 10 10 10 11 11 11 11 11 11 11 12 12 12 12 12 13 13 12 12 12 12 12 12 12 12 12 12
4 4 5 5 5 5 6 6 6 7 7 7 7 8 8 8 9 9 10 10 10 11 11 11 11 11 11 11 11 12 12 12 12 12 12 12 12 12 12 12 12 12
3 4 4 4 4 5 5 5 6 6 6 6 7 7 7 7 8 8 8 9 9 10 10 10 11 11 11 11 11 11 11 11 11 11 11 11 11 11 11 11 11 11
3 3 3 3 4 4 4 5 5 5 5 6 6 6 7 7 7 7 7 8 8 8 9 9 10 10 10 10 10 10 10 10 10 10 11 11 11 11 11 11 11 11
2 3 3 3 3 4 4 4 4 5 5 5 5 5 6 6 6 7 7 7 7 7 8 8 9 9 10 10 10 10 10 10 10 10 10 10 10 11 11 11 11 11
2 2 2 2 3 3 3 3 3 4 4 4 5 5 5 5 5 6 6 6 7 7 7 7 8 8 9 9 9 9 9 10 10 10 10 10 10 10 10 11 11 11
0 1 1 1 2 2 3 3 3 3 3 4 4 4 4 5 5 5 5 5 6 6 6 7 7 7 8 8 8 8 9 9 9 10 10 10 10 10 10 10 10 10
-1 -1 -0 -0 0 1 1 2 2 3 3 3 3 3 4 4 4 4 4 4 5 5 6 6 6 6 7 7 7 8 8 8 9 9 9 10 10 10 10 10 10 10
-2 -2 -2 -1 -1 -1 -0 1 1 2 2 2 2 3 3 3 4 4 4 4 4 4 5 5 5 6 6 6 6 7 7 7 8 8 9 9 10 10 10 10 10 10
-3 -3 -3 -2 -2 -2 -1 -1 -0 0 1 1 2 2 2 2 3 3 3 4 4 4 4 4 5 5 5 5 6 6 6 6 7 7 8 8 9 9 9 9 9 10
-4 -4 -4 -3 -3 -3 -2 -2 -2 -1 -1 -0 0 1 1 1 2 2 3 3 3 3 3 4 4 4 5 5 5 5 6 6 6 6 6 7 8 8 8 9 9 9
-4 -4 -4 -4 -4 -4 -3 -3 -3 -2 -2 -2 -1 -1 -0 0 0 1 1 2 3 3 3 3 3 4 4 4 4 4 5 5 6 6 6 6 6 7 7 8 8 8
-5 -4 -4 -4 -4 -4 -4 -4 -4 -4 -3 -3 -2 -2 -2 -1 -1 -1 -0 0 1 2 2 3 3 3 3 3 3 3 4 4 5 5 5 6 6 6 6 7 7 7
-5 -5 -5 -5 -4 -4 -4 -4 -4 -4 -4 -4 -4 -3 -3 -3 -2 -2 -2 -1 -1 -0 0 1 2 2 2 2 3 3 3 3 4 4 5 5 5 5 6 6 6 7
-6 -6 -6 -6 -6 -5 -5 -5 -5 -5 -5 -5 -5 -5 -4 -4 -4 -3 -3 -3 -2 -2 -1 -0 0 1 1 1 2 2 2 2 2 3 4 4 5 5 5 5 5 6
-8 -8 -7 -7 -7 -7 -7 -6 -6 -6 -6 -6 -6 -6 -6 -5 -5 -5 -5 -4 -4 -4 -3 -2 -1 -1 -1 -0 0 0 0 0 1 2 2 3 4 4 4 5 5 5
-9 -9 -9 -8 -8 -8 -8 -8 -8 -7 -7 -7 -6 -6 -6 -6 -6 -6 -6 -6 -6 -6 -5 -4 -3 -3 -2 -2 -2 -2 -2 -2 -1 -0 0 1 2 3 3 3 4 4
-10 -10 -10 -10 -9 -9 -9 -9 -8 -8 -8 -8 -8 -7 -7 -7 -7 -7 -7 -7 -8 -8 -8 -7 -5 -4 -5 -4 -4 -4 -4 -4 -3 -3 -2 -1 0 1 1 2 2 2
-11 -11 -10 -10 -10 -10 -10 -10 -9 -9 -9 -9 -9 -9 -8 -8 -8 -7 -7 -8 -9 -9 -8 -8 -7 -6 -6 -6 -6 -6 -6 -6 -6 -5 -4 -3 -2 -2 -1 -0 1 1
-11 -11 -11 -11 -11 -10 -10 -10 -10 -10 -10 -10 -10 -10 -10 -9 -9 -8 -8 -8 -9 -9 -9 -9 -8 -8 -8 -8 -7 -8 -8 -8 -7 -7 -6 -5 -5 -4 -3 -2 -2 -1
-11 -11 -11 -11 -11 -11 -11 -11 -10 -10 -10 -10 -11 -11 -10 -10 -9 -9 -9 -9 -9 -9 -9 -9 -8 -8 -8 -8 -8 -8 -8 -9 -8 -9 -8 -7 -7 -6 -5 -4 -4 -3
-12 -12 -12 -12 -12 -11 -11 -11 -11 -11 -11 -11 -11 -11 -10 -10 -10 -10 -10 -9 -9 -9 -9 -9 -9 -9 -9 -9 -8 -9 -9 -9 -9 -9 -9 -9 -9 -8 -7 -6 -6 -5